QPF
0.00 0.00 0.01 0.01 0.01 0.01 0.02 0.02 0.03 0.03 0.03 0.03 0.02 0.03 0.04 0.05 0.05 0.04 0.05 0.07 0.06 0.05 0.04 0.05 0.05 0.05 0.04 0.04 0.04 0.04 0.03 0.03 0.02 0.01 0.01 0.01 0.01 0.01 0.01 0.01 0.01 0.00 0.00 0.00
0.01 0.00 0.01 0.01 0.01 0.01 0.02 0.02 0.02 0.03 0.03 0.02 0.02 0.03 0.04 0.05 0.08 0.06 0.07 0.09 0.10 0.07 0.05 0.06 0.06 0.06 0.06 0.04 0.04 0.04 0.03 0.03 0.03 0.02 0.02 0.02 0.01 0.00 0.00 0.00 0.00 0.00 0.00 0.00
0.03 0.01 0.02 0.03 0.01 0.01 0.02 0.02 0.02 0.04 0.03 0.01 0.02 0.03 0.05 0.05 0.09 0.08 0.08 0.10 0.12 0.11 0.07 0.06 0.05 0.05 0.05 0.04 0.04 0.04 0.02 0.02 0.02 0.02 0.01 0.01 0.01 0.00 0.00 0.00 0.00 0.00 0.00 0.00
0.04 0.03 0.03 0.02 0.01 0.01 0.01 0.01 0.02 0.02 0.02 0.02 0.02 0.04 0.05 0.07 0.09 0.09 0.09 0.09 0.11 0.11 0.09 0.08 0.06 0.04 0.06 0.05 0.04 0.04 0.03 0.01 0.02 0.01 0.01 0.01 0.01 0.01 0.00 0.00 0.00 0.00 0.00 0.00
0.02 0.02 0.02 0.01 0.00 0.01 0.01 0.02 0.02 0.02 0.01 0.02 0.03 0.05 0.07 0.09 0.09 0.10 0.11 0.12 0.11 0.09 0.08 0.09 0.08 0.06 0.06 0.07 0.06 0.05 0.04 0.02 0.01 0.01 0.00 0.01 0.01 0.01 0.01 0.01 0.00 0.00 0.00 0.00
0.02 0.02 0.02 0.01 0.00 0.00 0.01 0.03 0.03 0.02 0.01 0.01 0.04 0.05 0.06 0.08 0.08 0.09 0.09 0.10 0.10 0.10 0.09 0.07 0.07 0.07 0.06 0.07 0.08 0.06 0.04 0.02 0.01 0.01 0.00 0.01 0.01 0.00 0.00 0.01 0.01 0.00 0.00 0.00
0.01 0.01 0.01 0.00 0.00 0.00 0.01 0.02 0.02 0.04 0.02 0.01 0.04 0.06 0.05 0.05 0.07 0.07 0.07 0.06 0.07 0.07 0.07 0.06 0.05 0.04 0.04 0.05 0.05 0.05 0.03 0.02 0.01 0.01 0.01 0.01 0.00 0.01 0.01 0.01 0.01 0.00 0.00 0.00
0.01 0.00 0.00 0.00 0.00 0.00 0.01 0.01 0.03 0.08 0.06 0.05 0.05 0.05 0.06 0.05 0.05 0.05 0.04 0.03 0.03 0.04 0.04 0.04 0.04 0.04 0.03 0.03 0.02 0.02 0.01 0.01 0.01 0.01 0.00 0.00 0.01 0.01 0.01 0.01 0.01 0.00 0.00 0.00
0.00 0.00 0.00 0.00 0.00 0.00 0.00 0.02 0.04 0.07 0.08 0.06 0.06 0.06 0.06 0.04 0.03 0.03 0.03 0.03 0.03 0.03 0.03 0.03 0.03 0.03 0.02 0.02 0.01 0.01 0.01 0.01 0.01 0.00 0.00 0.00 0.01 0.01 0.00 0.00 0.00 0.00 0.00 0.00
0.00 0.00 0.00 0.00 0.00 0.00 0.00 0.01 0.02 0.04 0.05 0.05 0.05 0.05 0.05 0.04 0.03 0.03 0.04 0.03 0.03 0.02 0.03 0.03 0.02 0.01 0.01 0.01 0.01 0.01 0.01 0.01 0.01 0.01 0.00 0.00 0.00 0.00 0.00 0.00 0.00 0.00 0.00 0.00
0.00 0.00 0.00 0.00 0.00 0.00 0.00 0.00 0.00 0.01 0.02 0.02 0.02 0.02 0.02 0.02 0.03 0.03 0.04 0.02 0.02 0.03 0.03 0.02 0.02 0.02 0.01 0.01 0.01 0.01 0.01 0.01 0.01 0.01 0.01 0.01 0.00 0.00 0.00 0.00 0.00 0.00 0.00 0.00
0.00 0.00 0.00 0.00 0.00 0.00 0.00 0.00 0.00 0.00 0.00 0.01 0.00 0.00 0.01 0.01 0.02 0.03 0.03 0.02 0.03 0.03 0.03 0.02 0.02 0.02 0.01 0.01 0.01 0.03 0.03 0.02 0.01 0.01 0.01 0.00 0.00 0.00 0.00 0.00 0.00 0.00 0.00 0.00
0.00 0.00 0.00 0.00 0.00 0.00 0.00 0.00 0.00 0.00 0.00 0.01 0.00 0.01 0.01 0.01 0.02 0.03 0.03 0.02 0.02 0.02 0.02 0.02 0.02 0.02 0.01 0.01 0.02 0.02 0.03 0.02 0.01 0.00 0.01 0.00 0.00 0.00 0.00 0.00 0.00 0.00 0.00 0.00
0.00 0.00 0.00 0.00 0.00 0.00 0.00 0.00 0.00 0.00 0.00 0.00 0.01 0.01 0.01 0.01 0.02 0.03 0.03 0.02 0.01 0.02 0.02 0.01 0.01 0.02 0.02 0.01 0.02 0.02 0.01 0.01 0.01 0.01 0.01 0.00 0.00 0.00 0.01 0.01 0.01 0.00 0.00 0.00
0.00 0.00 0.00 0.00 0.00 0.00 0.00 0.00 0.00 0.00 0.00 0.01 0.01 0.01 0.01 0.01 0.01 0.02 0.02 0.01 0.01 0.01 0.01 0.01 0.01 0.02 0.01 0.01 0.02 0.01 0.01 0.01 0.01 0.01 0.00 0.00 0.00 0.00 0.00 0.00 0.01 0.01 0.01 0.00
0.00 0.00 0.00 0.00 0.00 0.00 0.00 0.00 0.00 0.00 0.00 0.00 0.01 0.01 0.00 0.01 0.01 0.01 0.01 0.00 0.01 0.01 0.02 0.02 0.02 0.02 0.01 0.01 0.01 0.01 0.01 0.00 0.01 0.00 0.00 0.00 0.00 0.00 0.00 0.00 0.00 0.01 0.01 0.01
0.00 0.00 0.00 0.00 0.00 0.00 0.00 0.00 0.00 0.00 0.00 0.00 0.00 0.00 0.00 0.01 0.01 0.00 0.00 0.00 0.01 0.01 0.01 0.01 0.01 0.01 0.00 0.00 0.01 0.01 0.01 0.00 0.00 0.00 0.00 0.00 0.00 0.01 0.00 0.00 0.01 0.01 0.01 0.00
0.00 0.00 0.00 0.00 0.00 0.00 0.00 0.00 0.00 0.00 0.00 0.00 0.00 0.00 0.00 0.00 0.00 0.00 0.00 0.00 0.00 0.01 0.00 0.00 0.00 0.00 0.00 0.00 0.00 0.00 0.00 0.00 0.00 0.00 0.00 0.00 0.00 0.00 0.00 0.00 0.00 0.00 0.00 0.00
0.00 0.00 0.00 0.00 0.00 0.00 0.00 0.00 0.00 0.00 0.00 0.00 0.00 0.00 0.00 0.00 0.00 0.00 0.00 0.00 0.00 0.00 0.00 0.00 0.00 0.00 0.00 0.00 0.00 0.00 0.00 0.00 0.00 0.00 0.00 0.00 0.00 0.00 0.00 0.00 0.00 0.00 0.00 0.00
0.00 0.00 0.00 0.00 0.00 0.00 0.00 0.00 0.00 0.00 0.00 0.00 0.00 0.00 0.00 0.00 0.00 0.00 0.00 0.00 0.00 0.00 0.00 0.00 0.00 0.00 0.00 0.00 0.00 0.00 0.00 0.00 0.00 0.00 0.00 0.00 0.00 0.00 0.00 0.00 0.00 0.00 0.00 0.00
0.00 0.00 0.00 0.00 0.00 0.00 0.00 0.00 0.00 0.00 0.00 0.00 0.00 0.00 0.00 0.00 0.00 0.00 0.00 0.00 0.00 0.00 0.00 0.00 0.00 0.00 0.00 0.00 0.00 0.00 0.00 0.00 0.00 0.00 0.00 0.00 0.00 0.00 0.00 0.00 0.00 0.00 0.00 0.00
0.00 0.00 0.00 0.00 0.00 0.00 0.00 0.00 0.00 0.00 0.00 0.00 0.00 0.00 0.00 0.00 0.00 0.00 0.00 0.00 0.00 0.00 0.00 0.00 0.00 0.00 0.00 0.00 0.00 0.00 0.00 0.00 0.00 0.00 0.00 0.00 0.00 0.00 0.00 0.00 0.00 0.00 0.00 0.00
0.00 0.00 0.00 0.00 0.00 0.00 0.00 0.00 0.00 0.00 0.00 0.00 0.00 0.00 0.00 0.00 0.00 0.00 0.00 0.00 0.00 0.00 0.00 0.00 0.00 0.00 0.00 0.00 0.00 0.00 0.00 0.00 0.00 0.00 0.00 0.00 0.00 0.00 0.00 0.00 0.00 0.00 0.00 0.00
0.00 0.00 0.00 0.00 0.00 0.00 0.00 0.00 0.00 0.00 0.00 0.00 0.00 0.00 0.00 0.00 0.00 0.00 0.00 0.00 0.00 0.00 0.00 0.00 0.00 0.00 0.00 0.00 0.00 0.00 0.00 0.00 0.00 0.00 0.00 0.00 0.00 0.00 0.00 0.00 0.00 0.00 0.00 0.00
0.00 0.00 0.00 0.00 0.00 0.00 0.00 0.00 0.00 0.00 0.00 0.00 0.00 0.00 0.00 0.00 0.00 0.00 0.00 0.00 0.00 0.00 0.00 0.00 0.00 0.00 0.00 0.00 0.00 0.00 0.00 0.00 0.00 0.00 0.00 0.00 0.00 0.00 0.00 0.00 0.00 0.00 0.00 0.00
0.00 0.00 0.00 0.00 0.00 0.00 0.00 0.00 0.00 0.00 0.00 0.00 0.00 0.00 0.00 0.00 0.00 0.00 0.00 0.00 0.00 0.00 0.00 0.00 0.00 0.00 0.00 0.00 0.00 0.00 0.00 0.00 0.00 0.00 0.00 0.00 0.00 0.00 0.00 0.00 0.00 0.00 0.00 0.00
0.00 0.00 0.00 0.00 0.00 0.00 0.00 0.00 0.00 0.00 0.00 0.00 0.00 0.00 0.00 0.00 0.00 0.00 0.00 0.00 0.00 0.00 0.00 0.00 0.00 0.00 0.00 0.00 0.00 0.00 0.00 0.00 0.00 0.00 0.00 0.00 0.00 0.00 0.00 0.00 0.00 0.00 0.00 0.00
MSLP
1010.09 1009.84 1009.55 1009.28 1009.11 1009.12 1009.34 1009.80 1010.51 1011.44 1012.55 1013.77 1015.03 1016.26 1017.38 1018.36 1019.17 1019.80 1020.26 1020.58 1020.80 1020.95 1021.07 1021.19 1021.33 1021.49 1021.67 1021.87 1022.05 1022.23 1022.38 1022.51 1022.63 1022.74 1022.85 1022.98 1023.12 1023.29 1023.47 1023.66 1023.83 1023.99 1024.11 1024.19
1010.16 1009.96 1009.70 1009.44 1009.27 1009.25 1009.44 1009.89 1010.61 1011.56 1012.70 1013.97 1015.27 1016.52 1017.66 1018.63 1019.41 1019.98 1020.38 1020.63 1020.78 1020.89 1020.99 1021.12 1021.29 1021.50 1021.74 1021.98 1022.22 1022.43 1022.60 1022.73 1022.83 1022.91 1023.00 1023.11 1023.25 1023.44 1023.65 1023.88 1024.12 1024.33 1024.52 1024.65
1010.19 1010.08 1009.89 1009.67 1009.50 1009.47 1009.64 1010.06 1010.75 1011.69 1012.83 1014.10 1015.41 1016.67 1017.82 1018.78 1019.53 1020.08 1020.44 1020.65 1020.77 1020.85 1020.95 1021.08 1021.27 1021.51 1021.79 1022.07 1022.33 1022.56 1022.73 1022.86 1022.94 1023.01 1023.08 1023.18 1023.33 1023.53 1023.78 1024.06 1024.35 1024.63 1024.87 1025.06
1010.15 1010.15 1010.05 1009.89 1009.75 1009.73 1009.88 1010.27 1010.92 1011.82 1012.92 1014.16 1015.46 1016.71 1017.85 1018.82 1019.57 1020.11 1020.47 1020.68 1020.80 1020.89 1021.00 1021.15 1021.36 1021.62 1021.92 1022.22 1022.50 1022.73 1022.90 1023.01 1023.07 1023.11 1023.16 1023.25 1023.40 1023.61 1023.88 1024.19 1024.53 1024.86 1025.14 1025.36
1010.04 1010.15 1010.15 1010.07 1009.99 1009.98 1010.13 1010.49 1011.09 1011.93 1012.97 1014.16 1015.42 1016.66 1017.79 1018.76 1019.54 1020.11 1020.50 1020.75 1020.90 1021.03 1021.17 1021.35 1021.59 1021.87 1022.18 1022.49 1022.77 1022.99 1023.14 1023.23 1023.27 1023.28 1023.31 1023.37 1023.50 1023.70 1023.97 1024.30 1024.65 1025.00 1025.31 1025.56
1009.83 1010.04 1010.14 1010.16 1010.15 1010.18 1010.34 1010.68 1011.23 1012.01 1012.99 1014.12 1015.33 1016.54 1017.66 1018.64 1019.44 1020.06 1020.51 1020.82 1021.04 1021.23 1021.42 1021.65 1021.92 1022.23 1022.56 1022.87 1023.14 1023.35 1023.48 1023.54 1023.55 1023.53 1023.52 1023.55 1023.66 1023.83 1024.09 1024.40 1024.75 1025.10 1025.41 1025.67
1009.52 1009.82 1010.02 1010.14 1010.21 1010.31 1010.50 1010.84 1011.36 1012.09 1013.01 1014.07 1015.22 1016.38 1017.48 1018.46 1019.30 1019.97 1020.48 1020.87 1021.17 1021.43 1021.69 1021.97 1022.29 1022.63 1022.97 1023.28 1023.55 1023.75 1023.86 1023.90 1023.88 1023.84 1023.80 1023.80 1023.87 1024.02 1024.24 1024.53 1024.85 1025.18 1025.49 1025.75
1009.14 1009.51 1009.81 1010.03 1010.21 1010.39 1010.63 1010.98 1011.50 1012.18 1013.04 1014.03 1015.11 1016.22 1017.29 1018.27 1019.12 1019.83 1020.40 1020.86 1021.24 1021.58 1021.91 1022.25 1022.60 1022.97 1023.33 1023.66 1023.92 1024.11 1024.22 1024.25 1024.22 1024.16 1024.10 1024.08 1024.13 1024.25 1024.44 1024.70 1025.00 1025.31 1025.60 1025.86
1008.72 1009.16 1009.55 1009.88 1010.16 1010.44 1010.75 1011.15 1011.66 1012.32 1013.13 1014.06 1015.07 1016.11 1017.12 1018.07 1018.92 1019.65 1020.27 1020.78 1021.22 1021.62 1022.01 1022.40 1022.80 1023.20 1023.58 1023.91 1024.19 1024.39 1024.50 1024.53 1024.51 1024.45 1024.40 1024.38 1024.41 1024.52 1024.69 1024.93 1025.21 1025.51 1025.79 1026.04
1008.32 1008.82 1009.30 1009.74 1010.14 1010.52 1010.92 1011.37 1011.91 1012.55 1013.31 1014.17 1015.11 1016.07 1017.02 1017.92 1018.74 1019.46 1020.09 1020.63 1021.11 1021.56 1021.99 1022.42 1022.85 1023.27 1023.67 1024.02 1024.31 1024.52 1024.65 1024.71 1024.71 1024.68 1024.65 1024.64 1024.69 1024.80 1024.98 1025.22 1025.49 1025.78 1026.06 1026.30
1008.00 1008.56 1009.14 1009.69 1010.20 1010.69 1011.17 1011.68 1012.25 1012.89 1013.61 1014.41 1015.27 1016.15 1017.02 1017.85 1018.61 1019.30 1019.92 1020.46 1020.96 1021.42 1021.87 1022.32 1022.77 1023.20 1023.62 1023.98 1024.29 1024.52 1024.68 1024.77 1024.81 1024.81 1024.82 1024.86 1024.94 1025.08 1025.28 1025.53 1025.81 1026.10 1026.38 1026.62
1007.80 1008.44 1009.11 1009.76 1010.38 1010.97 1011.54 1012.11 1012.70 1013.34 1014.03 1014.77 1015.55 1016.34 1017.12 1017.87 1018.58 1019.22 1019.80 1020.32 1020.81 1021.27 1021.73 1022.18 1022.63 1023.07 1023.48 1023.85 1024.17 1024.42 1024.60 1024.73 1024.80 1024.86 1024.91 1025.00 1025.12 1025.30 1025.54 1025.81 1026.11 1026.42 1026.70 1026.93
1007.75 1008.47 1009.23 1009.97 1010.69 1011.36 1011.99 1012.61 1013.23 1013.86 1014.52 1015.21 1015.91 1016.63 1017.34 1018.01 1018.65 1019.23 1019.77 1020.27 1020.73 1021.18 1021.62 1022.06 1022.50 1022.92 1023.33 1023.69 1024.01 1024.27 1024.47 1024.62 1024.73 1024.82 1024.93 1025.06 1025.23 1025.45 1025.72 1026.02 1026.35 1026.66 1026.95 1027.18
1007.84 1008.65 1009.48 1010.30 1011.09 1011.82 1012.51 1013.15 1013.78 1014.40 1015.04 1015.68 1016.33 1016.99 1017.63 1018.24 1018.82 1019.36 1019.86 1020.32 1020.76 1021.19 1021.61 1022.02 1022.43 1022.83 1023.21 1023.56 1023.86 1024.11 1024.31 1024.47 1024.60 1024.73 1024.86 1025.03 1025.24 1025.50 1025.79 1026.12 1026.46 1026.79 1027.07 1027.30
1008.04 1008.92 1009.82 1010.70 1011.53 1012.30 1013.01 1013.67 1014.30 1014.91 1015.52 1016.13 1016.74 1017.35 1017.95 1018.53 1019.07 1019.57 1020.05 1020.49 1020.90 1021.30 1021.69 1022.08 1022.46 1022.82 1023.16 1023.47 1023.74 1023.97 1024.16 1024.31 1024.45 1024.58 1024.74 1024.92 1025.15 1025.43 1025.75 1026.10 1026.45 1026.77 1027.06 1027.27
1008.29 1009.25 1010.20 1011.11 1011.96 1012.74 1013.45 1014.11 1014.72 1015.32 1015.92 1016.51 1017.10 1017.69 1018.27 1018.82 1019.35 1019.84 1020.30 1020.72 1021.12 1021.50 1021.86 1022.21 1022.54 1022.86 1023.16 1023.42 1023.65 1023.84 1024.00 1024.14 1024.27 1024.40 1024.55 1024.74 1024.98 1025.27 1025.59 1025.94 1026.29 1026.62 1026.90 1027.11
1008.57 1009.57 1010.55 1011.48 1012.33 1013.09 1013.79 1014.43 1015.03 1015.62 1016.20 1016.78 1017.37 1017.95 1018.53 1019.09 1019.62 1020.11 1020.56 1020.98 1021.36 1021.71 1022.04 1022.35 1022.64 1022.91 1023.16 1023.38 1023.56 1023.71 1023.84 1023.95 1024.06 1024.18 1024.32 1024.51 1024.75 1025.03 1025.35 1025.69 1026.03 1026.36 1026.64 1026.85
1008.83 1009.87 1010.86 1011.78 1012.61 1013.35 1014.02 1014.64 1015.22 1015.80 1016.37 1016.95 1017.55 1018.14 1018.73 1019.30 1019.84 1020.34 1020.79 1021.20 1021.57 1021.90 1022.19 1022.46 1022.71 1022.93 1023.13 1023.30 1023.44 1023.55 1023.65 1023.74 1023.83 1023.94 1024.07 1024.25 1024.47 1024.75 1025.05 1025.39 1025.72 1026.04 1026.31 1026.53
1009.06 1010.12 1011.11 1012.01 1012.81 1013.52 1014.16 1014.76 1015.32 1015.89 1016.46 1017.05 1017.66 1018.27 1018.87 1019.46 1020.01 1020.51 1020.96 1021.36 1021.71 1022.01 1022.27 1022.50 1022.70 1022.88 1023.03 1023.16 1023.27 1023.36 1023.44 1023.52 1023.60 1023.70 1023.83 1024.00 1024.21 1024.47 1024.76 1025.08 1025.40 1025.71 1025.98 1026.21
1009.27 1010.34 1011.32 1012.19 1012.97 1013.65 1014.26 1014.83 1015.39 1015.94 1016.52 1017.12 1017.74 1018.36 1018.98 1019.57 1020.12 1020.62 1021.06 1021.44 1021.76 1022.03 1022.26 1022.45 1022.61 1022.75 1022.87 1022.98 1023.07 1023.15 1023.23 1023.30 1023.39 1023.49 1023.62 1023.78 1023.99 1024.23 1024.51 1024.81 1025.12 1025.41 1025.68 1025.92
1009.48 1010.54 1011.50 1012.35 1013.10 1013.75 1014.35 1014.90 1015.44 1016.00 1016.58 1017.18 1017.81 1018.44 1019.06 1019.65 1020.20 1020.68 1021.10 1021.45 1021.74 1021.98 1022.17 1022.32 1022.46 1022.57 1022.68 1022.77 1022.87 1022.95 1023.04 1023.12 1023.22 1023.34 1023.47 1023.64 1023.84 1024.07 1024.33 1024.61 1024.90 1025.18 1025.44 1025.67
1009.67 1010.72 1011.66 1012.49 1013.22 1013.85 1014.43 1014.97 1015.51 1016.07 1016.65 1017.26 1017.88 1018.51 1019.13 1019.71 1020.24 1020.70 1021.10 1021.42 1021.67 1021.87 1022.03 1022.16 1022.28 1022.38 1022.48 1022.58 1022.68 1022.79 1022.89 1023.01 1023.12 1023.26 1023.40 1023.57 1023.76 1023.98 1024.22 1024.47 1024.74 1025.00 1025.25 1025.48
1009.84 1010.87 1011.79 1012.60 1013.30 1013.92 1014.49 1015.03 1015.57 1016.12 1016.71 1017.31 1017.94 1018.56 1019.16 1019.73 1020.23 1020.67 1021.04 1021.33 1021.56 1021.74 1021.88 1021.99 1022.10 1022.20 1022.31 1022.42 1022.55 1022.68 1022.81 1022.95 1023.09 1023.24 1023.40 1023.56 1023.75 1023.95 1024.16 1024.39 1024.62 1024.86 1025.09 1025.31
1009.95 1010.95 1011.85 1012.63 1013.31 1013.92 1014.48 1015.02 1015.56 1016.12 1016.71 1017.31 1017.93 1018.54 1019.13 1019.68 1020.16 1020.58 1020.92 1021.19 1021.41 1021.57 1021.70 1021.81 1021.92 1022.04 1022.16 1022.30 1022.45 1022.60 1022.77 1022.93 1023.09 1023.25 1023.41 1023.58 1023.75 1023.92 1024.11 1024.31 1024.51 1024.72 1024.93 1025.14
1009.96 1010.92 1011.78 1012.54 1013.20 1013.80 1014.35 1014.89 1015.44 1016.00 1016.59 1017.19 1017.81 1018.41 1018.99 1019.51 1019.98 1020.39 1020.71 1020.98 1021.19 1021.35 1021.49 1021.61 1021.74 1021.87 1022.02 1022.18 1022.35 1022.53 1022.71 1022.89 1023.07 1023.23 1023.39 1023.55 1023.70 1023.86 1024.02 1024.19 1024.37 1024.56 1024.75 1024.95
1009.82 1010.74 1011.55 1012.28 1012.92 1013.51 1014.06 1014.60 1015.15 1015.72 1016.31 1016.92 1017.52 1018.12 1018.69 1019.21 1019.67 1020.06 1020.39 1020.66 1020.88 1021.06 1021.21 1021.35 1021.50 1021.66 1021.83 1022.01 1022.20 1022.40 1022.59 1022.78 1022.96 1023.12 1023.27 1023.42 1023.56 1023.70 1023.84 1023.99 1024.16 1024.34 1024.53 1024.73
1009.52 1010.37 1011.14 1011.83 1012.46 1013.04 1013.59 1014.14 1014.70 1015.27 1015.87 1016.47 1017.08 1017.67 1018.23 1018.75 1019.21 1019.60 1019.94 1020.22 1020.46 1020.66 1020.84 1021.01 1021.18 1021.36 1021.55 1021.75 1021.95 1022.15 1022.35 1022.54 1022.71 1022.87 1023.02 1023.15 1023.28 1023.41 1023.55 1023.70 1023.87 1024.05 1024.25 1024.47
Thickness
5667 5669 5666 5664 5662 5662 5659 5658 5653 5652 5645 5633 5622 5612 5602 5593 5586 5581 5577 5575 5573 5571 5570 5569 5568 5568 5567 5567 5567 5567 5567 5565 5564 5562 5562 5562 5561 5560 5559 5558 5558 5557 5557 5556
5662 5668 5666 5661 5661 5660 5656 5655 5653 5647 5637 5634 5620 5607 5595 5588 5582 5576 5570 5566 5564 5561 5560 5559 5558 5557 5556 5555 5555 5555 5555 5554 5552 5551 5551 5550 5550 5549 5548 5548 5547 5546 5546 5545
5657 5665 5661 5654 5660 5657 5653 5653 5648 5641 5634 5623 5609 5600 5591 5584 5578 5570 5564 5559 5556 5552 5551 5550 5549 5548 5546 5545 5545 5545 5544 5543 5542 5542 5542 5541 5540 5539 5538 5537 5536 5535 5534 5533
5659 5656 5641 5658 5665 5660 5652 5647 5644 5638 5628 5618 5607 5596 5587 5581 5574 5564 5557 5552 5548 5544 5542 5540 5539 5538 5537 5536 5535 5535 5534 5533 5533 5533 5533 5532 5532 5531 5529 5528 5527 5526 5524 5523
5657 5655 5658 5658 5659 5655 5647 5641 5638 5630 5618 5607 5595 5585 5575 5571 5565 5559 5553 5547 5541 5537 5534 5532 5530 5529 5529 5527 5527 5526 5525 5525 5524 5524 5524 5524 5523 5521 5520 5519 5518 5517 5516 5515
5658 5648 5646 5655 5659 5658 5648 5634 5632 5625 5611 5600 5594 5586 5572 5564 5557 5550 5545 5539 5534 5531 5528 5525 5522 5521 5521 5520 5519 5518 5517 5516 5516 5516 5516 5515 5514 5513 5512 5512 5511 5510 5508 5507
5658 5653 5661 5657 5655 5650 5635 5632 5628 5620 5609 5601 5596 5592 5574 5560 5551 5544 5538 5533 5528 5525 5521 5518 5516 5515 5514 5513 5512 5511 5510 5509 5508 5508 5507 5507 5506 5505 5505 5505 5504 5503 5501 5499
5660 5653 5653 5652 5650 5643 5634 5631 5625 5615 5605 5596 5587 5577 5565 5554 5546 5539 5533 5527 5524 5520 5516 5512 5511 5510 5508 5506 5505 5504 5503 5502 5501 5501 5501 5500 5499 5498 5498 5498 5497 5497 5496 5495
5665 5655 5647 5646 5643 5637 5635 5626 5617 5609 5599 5589 5578 5567 5557 5548 5540 5534 5529 5524 5520 5516 5511 5507 5505 5504 5502 5499 5499 5498 5497 5496 5495 5494 5493 5494 5493 5493 5493 5493 5496 5495 5494 5493
5658 5649 5645 5641 5638 5634 5629 5621 5612 5603 5593 5584 5572 5561 5552 5543 5535 5529 5523 5519 5516 5512 5508 5503 5501 5499 5497 5494 5493 5492 5491 5490 5489 5489 5489 5487 5488 5489 5489 5489 5490 5490 5489 5488
5657 5647 5640 5636 5634 5629 5622 5615 5605 5596 5588 5578 5568 5557 5548 5539 5531 5525 5519 5515 5511 5508 5504 5500 5497 5493 5491 5489 5488 5487 5487 5486 5486 5485 5484 5482 5480 5478 5479 5476 5476 5480 5481 5481
5666 5657 5650 5636 5631 5625 5616 5607 5599 5590 5580 5572 5564 5554 5545 5537 5529 5522 5517 5512 5508 5504 5501 5497 5493 5489 5487 5485 5484 5483 5482 5482 5482 5481 5480 5479 5477 5472 5465 5467 5465 5465 5465 5466
5668 5662 5652 5637 5629 5622 5613 5603 5594 5585 5576 5567 5558 5551 5543 5535 5527 5521 5515 5509 5505 5501 5497 5493 5490 5487 5484 5482 5480 5479 5478 5478 5479 5478 5477 5476 5476 5474 5470 5463 5460 5460 5460 5460
5661 5652 5639 5632 5624 5617 5608 5599 5591 5581 5572 5563 5555 5548 5541 5533 5525 5519 5513 5508 5504 5499 5495 5491 5487 5484 5482 5479 5478 5477 5477 5473 5474 5474 5474 5473 5473 5473 5472 5472 5469 5466 5459 5458
5656 5653 5642 5631 5621 5612 5604 5596 5586 5576 5568 5560 5553 5546 5539 5531 5524 5518 5512 5508 5503 5498 5493 5489 5485 5482 5480 5478 5476 5475 5475 5474 5473 5473 5472 5471 5471 5471 5471 5470 5470 5468 5466 5460
5655 5647 5637 5627 5618 5610 5602 5594 5585 5575 5567 5559 5552 5544 5537 5530 5523 5517 5512 5507 5502 5497 5493 5489 5484 5481 5480 5478 5476 5475 5474 5468 5469 5472 5471 5470 5469 5469 5469 5468 5468 5467 5465 5464
5652 5642 5634 5626 5618 5610 5603 5595 5586 5577 5568 5560 5551 5544 5536 5529 5522 5516 5511 5507 5502 5497 5492 5489 5485 5483 5481 5479 5478 5477 5476 5471 5465 5470 5471 5469 5468 5468 5467 5467 5466 5465 5464 5460
5659 5650 5641 5632 5623 5613 5604 5596 5587 5578 5569 5561 5552 5544 5536 5529 5523 5517 5512 5506 5501 5497 5493 5490 5487 5484 5482 5480 5479 5480 5478 5476 5474 5473 5471 5470 5468 5467 5467 5466 5465 5464 5463 5460
5655 5647 5639 5631 5623 5614 5605 5596 5588 5579 5570 5561 5553 5545 5538 5532 5525 5519 5513 5508 5503 5499 5495 5492 5485 5486 5483 5481 5480 5480 5480 5478 5476 5474 5473 5467 5468 5468 5467 5466 5465 5464 5463 5462
5652 5645 5637 5629 5622 5614 5605 5597 5588 5579 5571 5563 5555 5547 5540 5534 5528 5522 5516 5512 5509 5506 5499 5494 5490 5489 5487 5484 5481 5485 5483 5482 5479 5477 5475 5473 5471 5469 5468 5467 5466 5465 5464 5463
5650 5643 5636 5629 5621 5614 5606 5598 5589 5580 5572 5565 5557 5550 5543 5537 5532 5526 5521 5518 5511 5507 5502 5495 5496 5494 5492 5489 5484 5490 5488 5485 5483 5480 5478 5476 5474 5472 5471 5469 5468 5467 5465 5464
5649 5643 5636 5629 5621 5613 5606 5598 5590 5582 5574 5567 5561 5554 5547 5541 5536 5531 5528 5525 5517 5508 5507 5505 5503 5498 5495 5491 5495 5495 5493 5490 5487 5485 5482 5480 5478 5476 5474 5472 5471 5470 5468 5467
5649 5643 5637 5629 5622 5614 5606 5600 5593 5585 5578 5571 5565 5558 5553 5548 5544 5539 5534 5528 5523 5513 5514 5513 5504 5498 5495 5496 5501 5500 5497 5494 5492 5490 5487 5485 5483 5481 5479 5477 5475 5474 5472 5470
5649 5642 5636 5630 5622 5614 5607 5602 5595 5588 5581 5575 5569 5563 5558 5553 5549 5547 5542 5530 5525 5518 5521 5513 5505 5502 5496 5505 5506 5505 5503 5500 5498 5497 5494 5492 5490 5487 5485 5482 5480 5478 5476 5473
5648 5642 5636 5630 5622 5617 5610 5604 5597 5590 5585 5580 5574 5567 5564 5560 5557 5553 5546 5538 5529 5524 5525 5516 5510 5506 5507 5513 5513 5511 5510 5508 5506 5503 5500 5497 5496 5493 5490 5487 5485 5483 5481 5479
5647 5642 5637 5632 5628 5623 5616 5610 5603 5597 5592 5586 5580 5574 5570 5565 5562 5556 5549 5545 5538 5531 5533 5527 5521 5515 5519 5521 5520 5517 5515 5510 5508 5506 5506 5503 5501 5499 5496 5493 5489 5488 5486 5483
5645 5642 5636 5633 5629 5626 5621 5615 5610 5604 5599 5594 5588 5581 5576 5571 5566 5562 5557 5553 5547 5542 5541 5538 5534 5531 5530 5529 5527 5523 5520 5518 5515 5513 5511 5508 5506 5503 5501 5497 5496 5494 5490 5489